Terminal Aerodrome Forecast
Issued by NWS

Home | Current Version | Previous Version | Text Only | Print | Product List | Glossary On
Versions: 1 2 3 4 5 6 7 8 9 10 11 12 13 14 15 16 17 18 19 20 21 22 23 24 25 26 27 28 29 30 31 32 33 34 35 36 37 38 39 40 41 42 43 44 45 46 47 48 49 50
000
FTUS43 KLOT 120500
TAFGYY
TAF
KGYY 120540Z 1206/1306 17008KT P6SM SCT040 BKN060
     FM121000 17005KT 6SM -SHRA BR OVC020
     FM121400 18007KT P6SM -SHRA BKN020 OVC040
     FM121700 21010KT P6SM SCT035 BKN120
     FM122300 22010G16KT P6SM VCTS BKN040CB
     FM130400 26010G16KT 3SM TSRA SCT015 OVC035CB=

USA.gov is the U.S. government's official web portal to all federal, state and local government web resources and services.